Location: ?????
(31.8092°N, 35.2590°E)
Time: 02:52:33
(UTC+00:00)

Tiangong - Pass Details

Date: 30 September 2021
Orbit: 381 x 390 km, 41.5° (Epoch: 24 October)

Event Time Altitude Azimuth Distance (km) Brightness Sun altitude
Exits shadow 01:41:35 16° 21° (NNE) 1,089 3.7 -24.2°
Drops below altitude 10° 01:42:40 10° 37° (NE) 1,393 4.5 -24.0°
Sets 01:45:03 0° 54° (NE) 2,250 6.0 -23.5°
